Location: *
(51.4660°N, 0.3360°W)
Time: 04:41:29
(UTC+00:00)

Transit 2A Rocket - Pass Details

Date: 19 September 2019
Orbit: 594 x 910 km, 66.7° (Epoch: 17 October)

Event Time Altitude Azimuth Distance (km) Brightness Sun altitude
Rises 20:23:39 0° 322° (NW) 2,966 9.3 -21.0°
Reaches altitude 10° 20:26:01 10° 324° (NW) 2,016 8.2 -21.3°
Maximum altitude 20:30:31 75° 50° (NE) 632 4.4 -21.9°
Enters shadow 20:30:57 68° 100° (E) 656 4.4 -21.9°
